Simultaneous Nadir Overpasses (SNOs) Predictions

Prediction of SNOs between METOP-C and LANDSAT-8 Satellite Orbit:

Table of predicted SNOs for the next 14.0 days since TLE Epoch: 10/28/2023
Index Date (METOP-C) Time (METOP-C) Lat,Lon (METOP-C) SZA (METOP-C ) Date (LANDSAT-8) Time (LANDSAT-8) Lat,Lon (LANDSAT-8) SZA (LANDSAT-8 ) Distance(km) Time Diff (sec)
1 10/30/2023 09:22:18 -81.11,-101.04 82.79 10/30/2023 09:22:53 -81.11,-100.93 82.76 1.81 35
2 10/30/2023 10:12:55 81.15, 67.30 97.36 10/30/2023 10:12:18 81.14, 67.14 97.32 2.92 37
3 11/02/2023 04:56:40 -81.12, -34.50 81.87 11/02/2023 04:57:08 -81.12, -34.43 81.85 1.29 28
4 11/02/2023 05:47:17 81.15, 133.80 98.27 11/02/2023 05:46:33 81.14, 133.61 98.23 3.23 44
5 11/05/2023 00:31:01 -81.13, 32.31 80.94 11/05/2023 00:31:22 -81.13, 32.21 80.95 1.76 21
6 11/05/2023 01:21:39 81.15,-159.79 99.14 11/05/2023 01:20:47 81.15,-159.77 99.13 0.75 52
7 11/07/2023 20:05:22 -81.13, 98.66 80.12 11/07/2023 20:05:35 -81.13, 98.62 80.12 0.66 13
8 11/07/2023 20:56:00 81.15, -93.47 99.97 11/07/2023 20:55:00 81.15, -93.39 99.95 1.55 60
9 11/10/2023 15:39:43 -81.14, 165.29 79.29 11/10/2023 15:39:48 -81.13, 165.16 79.30 2.10 5



Historial Predications of SNOs between METOP-C and LANDSAT-8
